Location: NJAA Observatory
(40.6819°N, 74.8979°W)
Time: 21:43:33
(UTC-04:00)

Transit 2A Rocket - Visible Passes

Search period start: 26 May 2015 00:00
Search period end: 05 June 2015 00:00
Orbit: 586 x 919 km, 66.7° (Epoch: 26 May)

Date Brightness Start Highest point End Pass type
(mag) Time Alt. Az. Time Alt. Az. Time Alt. Az.
26 May 7.3 20:48:30 10° NNE 20:49:58 11° NNE 20:51:36 10° NE visible
26 May 5.2 22:28:47 10° NNW 22:34:04 55° NE 22:35:43 38° ESE visible
27 May 6.8 00:12:43 10° WNW 00:15:39 18° W 00:15:39 18° W visible
27 May 6.0 21:46:54 10° NNW 21:51:46 33° NE 21:54:44 18° ESE visible
27 May 6.0 23:29:45 10° NW 23:34:21 32° WSW 23:34:40 31° WSW visible
28 May 6.6 21:05:12 10° N 21:09:17 22° NE 21:13:11 10° E visible
28 May 5.2 22:47:16 10° NW 22:52:27 57° WSW 22:53:43 43° SSW visible
29 May 4.8 22:05:04 10° NNW 22:10:24 81° ENE 22:12:48 30° SE visible
29 May 7.2 23:50:42 10° W 23:52:13 11° WSW 23:52:45 11° WSW visible
30 May 5.4 21:23:03 10° NNW 21:28:12 47° NE 21:31:56 16° SE visible
30 May 6.6 23:06:37 10° WNW 23:10:25 21° WSW 23:11:53 18° SW visible
31 May 5.9 22:23:49 10° NW 22:28:35 37° WSW 22:31:03 22° SSW visible
01 Jun 5.1 21:41:26 10° NW 21:46:38 68° WSW 21:50:16 17° SSE visible
02 Jun 5.0 20:59:17 10° NNW 21:04:33 70° ENE 21:09:18 10° SE visible
02 Jun 7.2 22:44:02 10° WNW 22:46:28 13° WSW 22:48:34 10° SW visible
03 Jun 6.6 22:00:34 10° NW 22:04:40 24° WSW 22:08:24 10° SSW visible
04 Jun 5.8 21:17:54 10° NW 21:22:48 44° WSW 21:27:13 10° S visible
